Location: Brede
(50.9167°N, 0.6000°E)
Time: 21:29:54
(UTC+00:00)

A-11 Canister half - Pass Details

Date: 27 November 2020
Orbit: 1524 x 1684 km, 47.3° (Epoch: 23 January)

Event Time Altitude Azimuth Distance (km) Brightness Sun altitude
Rises 05:29:29 0° 208° (SSW) 4,927 11.5 -18.7°
Reaches altitude 10° 05:33:01 10° 200° (SSW) 3,939 11.1 -18.2°
Maximum altitude 05:41:43 34° 140° (SE) 2,487 10.6 -16.9°
Drops below altitude 10° 05:50:17 10° 80° (E) 3,884 12.2 -15.5°
Sets 05:53:44 0° 72° (ENE) 4,851 12.6 -15.0°
